• In France
  • List of Countries
  • For 7 days
  • Water Temperature
  • Satellite Maps
  • Weather Map
  • Weather Widgets
  • user-avatar
    Login

    Hourly Weather Limón

    Today, 11 December, Monday

    Time Temperature Precipitation Wind Pressure Humidity
    00:00 +22°C° 2.7 mm 7 mps 761 mmHg 95%
    01:00 +22°C° 4.2 mm 7 mps 761 mmHg 95%
    02:00 +22°C° 4.2 mm 7 mps 760 mmHg 95%
    03:00 +22°C° 4.2 mm 7 mps 760 mmHg 95%
    04:00 +22°C° 4.5 mm 7 mps 760 mmHg 95%
    05:00 +22°C° 4.5 mm 7 mps 760 mmHg 95%
    06:00 +22°C° 4.5 mm 7 mps 761 mmHg 95%
    07:00 +22°C° 3.8 mm 7 mps 761 mmHg 95%
    08:00 +22°C° 3.8 mm 7 mps 761 mmHg 95%
    09:00 +22°C° 3.8 mm 7 mps 762 mmHg 94%
    10:00 +22°C° 3.2 mm 6 mps 761 mmHg 94%
    11:00 +22°C° 3.2 mm 6 mps 761 mmHg 95%
    12:00 +22°C° 3.2 mm 6 mps 760 mmHg 95%
    13:00 +22°C° 2.1 mm 6 mps 760 mmHg 94%
    14:00 +22°C° 2.1 mm 6 mps 760 mmHg 94%
    15:00 +22°C° 2.1 mm 6 mps 759 mmHg 94%
    16:00 +22°C° 2.4 mm 6 mps 759 mmHg 94%
    17:00 +23°C° 2.4 mm 6 mps 760 mmHg 94%
    18:00 +23°C° 2.4 mm 6 mps 760 mmHg 94%
    19:00 +23°C° 2.7 mm 6 mps 760 mmHg 93%
    20:00 +23°C° 2.7 mm 6 mps 761 mmHg 93%
    21:00 +23°C° 2.7 mm 6 mps 761 mmHg 93%
    22:00 +23°C° 1.4 mm 6 mps 761 mmHg 93%
    23:00 +23°C° 1.4 mm 6 mps 761 mmHg 93%

    Tomorrow, 12 December, Tuesday

    Time Temperature Precipitation Wind Pressure Humidity
    00:00 +23°C° 1.4 mm 7 mps 761 mmHg 92%
    01:00 +23°C° 0.7 mm 7 mps 761 mmHg 92%
    02:00 +23°C° 0.7 mm 7 mps 760 mmHg 92%
    03:00 +23°C° 0.7 mm 6 mps 760 mmHg 92%
    04:00 +23°C° 0.3 mm 6 mps 760 mmHg 92%
    05:00 +23°C° 0.3 mm 6 mps 761 mmHg 92%
    06:00 +23°C° 0.3 mm 6 mps 761 mmHg 91%
    07:00 +23°C° 0.3 mm 6 mps 761 mmHg 91%
    08:00 +23°C° 0.3 mm 6 mps 762 mmHg 90%
    09:00 +24°C° 0.3 mm 6 mps 762 mmHg 89%
    10:00 +24°C° 0.3 mm 6 mps 762 mmHg 88%
    11:00 +25°C° 0.3 mm 5 mps 761 mmHg 87%
    12:00 +25°C° 0.3 mm 5 mps 761 mmHg 85%
    13:00 +25°C° 0.5 mm 5 mps 760 mmHg 86%
    14:00 +25°C° 0.5 mm 5 mps 760 mmHg 86%
    15:00 +25°C° 0.5 mm 5 mps 759 mmHg 87%
    16:00 +23°C° 0.7 mm 5 mps 759 mmHg 87%
    17:00 +23°C° 0.7 mm 5 mps 760 mmHg 88%
    18:00 +23°C° 0.7 mm 5 mps 760 mmHg 89%
    19:00 +23°C° 1.2 mm 5 mps 761 mmHg 90%
    20:00 +23°C° 1.2 mm 5 mps 761 mmHg 92%
    21:00 +23°C° 1.2 mm 5 mps 762 mmHg 93%
    22:00 +23°C° 0.9 mm 5 mps 761 mmHg 93%
    23:00 +23°C° 0.9 mm 5 mps 761 mmHg 93%

    Day after tomorrow, 13 December, Wednesday

    Time Temperature Precipitation Wind Pressure Humidity
    00:00 +23°C° 0.9 mm 5 mps 761 mmHg 94%
    01:00 +23°C° 1 mm 5 mps 761 mmHg 94%
    02:00 +23°C° 1 mm 5 mps 760 mmHg 94%
    03:00 +23°C° 1 mm 5 mps 760 mmHg 94%
    04:00 +23°C° 0.8 mm 5 mps 760 mmHg 94%
    05:00 +23°C° 0.8 mm 5 mps 761 mmHg 94%
    06:00 +23°C° 0.8 mm 4 mps 761 mmHg 94%
    07:00 +23°C° 0.5 mm 4 mps 762 mmHg 93%
    08:00 +25°C° 0.5 mm 4 mps 762 mmHg 91%
    09:00 +25°C° 0.5 mm 4 mps 763 mmHg 90%
    10:00 +25°C° 0.2 mm 4 mps 762 mmHg 89%
    11:00 +26°C° 0.2 mm 5 mps 762 mmHg 87%
    12:00 +26°C° 0.2 mm 5 mps 761 mmHg 86%
    13:00 +26°C° 0.2 mm 5 mps 761 mmHg 86%
    14:00 +26°C° 0.2 mm 5 mps 760 mmHg 85%
    15:00 +26°C° 0.2 mm 5 mps 760 mmHg 84%
    16:00 +25°C° 0.4 mm 4 mps 760 mmHg 87%
    17:00 +23°C° 0.4 mm 4 mps 760 mmHg 89%
    18:00 +23°C° 0.4 mm 4 mps 760 mmHg 91%
    19:00 +23°C° 0.9 mm 4 mps 761 mmHg 90%
    20:00 +23°C° 0.9 mm 4 mps 761 mmHg 89%
    21:00 +23°C° 0.9 mm 4 mps 762 mmHg 89%
    22:00 +23°C° 1.8 mm 4 mps 761 mmHg 89%
    23:00 +23°C° 1.8 mm 4 mps 761 mmHg 89%

    14 December, Thursday

    Time Temperature Precipitation Wind Pressure Humidity
    00:00 +23°C° 1.8 mm 4 mps 760 mmHg 89%
    01:00 +23°C° 2.4 mm 4 mps 760 mmHg 90%
    02:00 +23°C° 2.4 mm 4 mps 759 mmHg 90%
    03:00 +23°C° 2.4 mm 4 mps 759 mmHg 91%
    04:00 +23°C° 3.1 mm 4 mps 759 mmHg 92%
    05:00 +23°C° 3.1 mm 4 mps 759 mmHg 92%
    06:00 +23°C° 3.1 mm 4 mps 760 mmHg 93%
    07:00 +23°C° 2.3 mm 4 mps 760 mmHg 93%
    08:00 +24°C° 2.3 mm 3 mps 761 mmHg 94%
    09:00 +24°C° 2.3 mm 3 mps 761 mmHg 94%
    10:00 +24°C° 1 mm 3 mps 761 mmHg 93%
    11:00 +25°C° 1 mm 3 mps 760 mmHg 93%
    12:00 +25°C° 1 mm 3 mps 760 mmHg 93%
    13:00 +25°C° 0.1 mm 3 mps 759 mmHg 90%
    14:00 +26°C° 0.1 mm 3 mps 758 mmHg 87%
    15:00 +27°C° 0.1 mm 3 mps 758 mmHg 85%
    16:00 +26°C° 0 mm 3 mps 758 mmHg 87%
    17:00 +25°C° 0 mm 3 mps 759 mmHg 90%
    18:00 +24°C° 0 mm 3 mps 759 mmHg 93%
    19:00 +24°C° 0 mm 3 mps 759 mmHg 90%
    20:00 +22°C° 0 mm 3 mps 760 mmHg 87%
    21:00 +22°C° 0 mm 3 mps 760 mmHg 84%
    22:00 +22°C° 0.1 mm 3 mps 760 mmHg 79%
    23:00 +22°C° 0.1 mm 3 mps 760 mmHg 75%

    15 December, Friday

    Time Temperature Precipitation Wind Pressure Humidity
    00:00 +22°C° 0.1 mm 3 mps 759 mmHg 70%
    01:00 +22°C° 0 mm 3 mps 759 mmHg 71%
    02:00 +22°C° 0 mm 3 mps 759 mmHg 72%
    03:00 +22°C° 0 mm 3 mps 758 mmHg 72%
    04:00 +22°C° 0.1 mm 3 mps 759 mmHg 75%
    05:00 +22°C° 0.1 mm 3 mps 759 mmHg 78%
    06:00 +24°C° 0.1 mm 3 mps 759 mmHg 80%
    07:00 +26°C° 0.2 mm 3 mps 760 mmHg 76%
    08:00 +28°C° 0.2 mm 3 mps 760 mmHg 71%
    09:00 +30°C° 0.2 mm 2 mps 761 mmHg 67%
    10:00 +31°C° 0 mm 2 mps 760 mmHg 65%
    11:00 +32°C° 0 mm 2 mps 760 mmHg 63%
    12:00 +34°C° 0 mm 2 mps 759 mmHg 61%
    13:00 +32°C° 0 mm 2 mps 758 mmHg 62%
    14:00 +33°C° 0 mm 3 mps 758 mmHg 63%
    15:00 +31°C° 0 mm 3 mps 757 mmHg 64%
    16:00 +29°C° 0 mm 2 mps 758 mmHg 73%
    17:00 +27°C° 0 mm 2 mps 758 mmHg 81%
    18:00 +25°C° 0 mm 2 mps 759 mmHg 90%
    19:00 +25°C° 0 mm 2 mps 759 mmHg 86%
    20:00 +24°C° 0 mm 2 mps 760 mmHg 82%
    21:00 +24°C° 0 mm 2 mps 761 mmHg 78%
    22:00 +24°C° 0.1 mm 3 mps 760 mmHg 74%
    23:00 +24°C° 0.1 mm 3 mps 760 mmHg 69%

    16 December, Saturday

    Time Temperature Precipitation Wind Pressure Humidity
    00:00 +22°C° 0.1 mm 3 mps 760 mmHg 64%
    01:00 +24°C° 0.1 mm 3 mps 760 mmHg 69%
    02:00 +24°C° 0.1 mm 3 mps 759 mmHg 73%
    03:00 +24°C° 0.1 mm 3 mps 759 mmHg 77%
    04:00 +24°C° 0.2 mm 2 mps 759 mmHg 80%
    05:00 +25°C° 0.2 mm 2 mps 760 mmHg 82%
    06:00 +25°C° 0.2 mm 2 mps 760 mmHg 85%
    07:00 +27°C° 0.6 mm 2 mps 760 mmHg 80%
    08:00 +29°C° 0.6 mm 1 mps 761 mmHg 75%
    09:00 +31°C° 0.6 mm 1 mps 761 mmHg 70%
    10:00 +31°C° 0.3 mm 1 mps 760 mmHg 68%
    11:00 +32°C° 0.3 mm 1 mps 760 mmHg 66%
    12:00 +33°C° 0.3 mm 1 mps 759 mmHg 64%
    13:00 +32°C° 0.1 mm 2 mps 759 mmHg 65%
    14:00 +31°C° 0.1 mm 2 mps 758 mmHg 67%
    15:00 +31°C° 0.1 mm 2 mps 757 mmHg 69%
    16:00 +29°C° 0.1 mm 2 mps 758 mmHg 75%
    17:00 +27°C° 0.1 mm 2 mps 758 mmHg 82%
    18:00 +26°C° 0.1 mm 2 mps 758 mmHg 88%
    19:00 +25°C° 0.1 mm 3 mps 759 mmHg 85%
    20:00 +25°C° 0.1 mm 3 mps 759 mmHg 82%
    21:00 +25°C° 0.1 mm 3 mps 759 mmHg 79%
    22:00 +24°C° 0.1 mm 3 mps 759 mmHg 78%
    23:00 +24°C° 0.1 mm 2 mps 759 mmHg 77%
    Show more